Time,TemperatureF,DewpointF,PressureIn,WindDirection,WindDirectionDegrees,WindSpeedMPH,WindSpeedGustMPH,Humidity,HourlyPrecipIn,Conditions,Clouds,dailyrainin,SoftwareType,DateUTC
2013-02-08 00:02:00,35.0,33.0,29.76,West,281,2.0,4.0,94,0.01,,,0.07,,2013-02-08 05:02:00,
2013-02-08 00:12:00,35.0,33.0,29.76,West,281,2.0,4.0,94,0.01,,,0.07,,2013-02-08 05:12:00,
2013-02-08 00:22:00,35.0,33.0,29.77,NNW,342,3.0,5.0,94,0.01,,,0.07,,2013-02-08 05:22:00,
2013-02-08 00:32:00,35.0,34.0,29.77,NW,304,0.0,4.0,95,0.01,,,0.07,,2013-02-08 05:32:00,
2013-02-08 00:42:00,35.0,34.0,29.77,NW,304,0.0,4.0,95,0.01,,,0.07,,2013-02-08 05:42:00,
2013-02-08 00:52:00,35.0,34.0,29.78,NW,323,1.0,5.0,95,0.00,,,0.07,,2013-02-08 05:52:00,
2013-02-08 01:01:00,34.0,33.0,29.78,NW,324,2.0,4.0,95,0.00,,,0.07,,2013-02-08 06:01:00,
2013-02-08 01:11:00,34.0,33.0,29.78,NW,324,2.0,4.0,95,0.00,,,0.07,,2013-02-08 06:11:00,
2013-02-08 01:21:00,34.0,33.0,29.78,WNW,294,4.0,7.0,95,0.00,,,0.07,,2013-02-08 06:21:00,
2013-02-08 01:32:00,34.0,33.0,29.78,West,281,4.0,11.0,95,0.00,,,0.07,,2013-02-08 06:32:00,
2013-02-08 01:42:00,34.0,33.0,29.78,West,281,4.0,11.0,95,0.00,,,0.07,,2013-02-08 06:42:00,
2013-02-08 01:52:00,34.0,33.0,29.79,WNW,301,6.0,9.0,95,0.00,,,0.07,,2013-02-08 06:52:00,
2013-02-08 02:01:00,34.0,33.0,29.78,WNW,294,6.0,9.0,95,0.00,,,0.07,,2013-02-08 07:01:00,
2013-02-08 02:11:00,34.0,33.0,29.78,WNW,294,6.0,9.0,95,0.00,,,0.07,,2013-02-08 07:11:00,
2013-02-08 02:22:00,34.0,33.0,29.80,West,280,5.0,8.0,95,0.00,,,0.07,,2013-02-08 07:22:00,
2013-02-08 02:32:00,34.0,33.0,29.80,WNW,288,7.0,14.0,95,0.01,,,0.08,,2013-02-08 07:32:00,
2013-02-08 02:42:00,33.0,32.0,29.81,WNW,288,6.0,10.0,95,0.01,,,0.08,,2013-02-08 07:42:00,
2013-02-08 02:52:00,33.0,32.0,29.81,WNW,288,6.0,10.0,95,0.01,,,0.08,,2013-02-08 07:52:00,
2013-02-08 03:01:00,33.0,32.0,29.81,West,274,6.0,12.0,96,0.01,,,0.08,,2013-02-08 08:01:00,
2013-02-08 03:11:00,34.0,33.0,29.82,WNW,293,9.0,16.0,96,0.01,,,0.08,,2013-02-08 08:11:00,
2013-02-08 03:21:00,34.0,33.0,29.82,WNW,293,9.0,16.0,96,0.01,,,0.08,,2013-02-08 08:21:00,
2013-02-08 03:32:00,33.0,32.0,29.82,WNW,297,6.0,14.0,96,0.00,,,0.08,,2013-02-08 08:32:00,
2013-02-08 03:42:00,33.0,32.0,29.82,WNW,297,6.0,14.0,96,0.00,,,0.08,,2013-02-08 08:42:00,
2013-02-08 03:52:00,34.0,33.0,29.82,WNW,288,8.0,14.0,96,0.00,,,0.08,,2013-02-08 08:52:00,
2013-02-08 04:03:00,34.0,33.0,29.82,West,279,8.0,16.0,96,0.00,,,0.08,,2013-02-08 09:03:00,
2013-02-08 04:11:00,34.0,33.0,29.82,West,279,8.0,16.0,96,0.00,,,0.08,,2013-02-08 09:11:00,
2013-02-08 04:21:00,34.0,33.0,29.83,WSW,248,9.0,17.0,96,0.00,,,0.08,,2013-02-08 09:21:00,
2013-02-08 04:32:00,34.0,33.0,29.83,West,269,8.0,19.0,95,0.00,,,0.08,,2013-02-08 09:32:00,
2013-02-08 04:42:00,34.0,33.0,29.83,West,269,8.0,19.0,95,0.00,,,0.08,,2013-02-08 09:42:00,
2013-02-08 04:52:00,34.0,33.0,29.84,NNW,329,10.0,18.0,95,0.00,,,0.08,,2013-02-08 09:52:00,
2013-02-08 05:01:00,33.0,32.0,29.85,NW,311,11.0,20.0,95,0.00,,,0.08,,2013-02-08 10:01:00,
2013-02-08 05:12:00,33.0,32.0,29.85,NW,311,11.0,20.0,95,0.00,,,0.08,,2013-02-08 10:12:00,
2013-02-08 05:22:00,33.0,32.0,29.87,WNW,296,12.0,20.0,95,0.00,,,0.08,,2013-02-08 10:22:00,
2013-02-08 05:32:00,33.0,31.0,29.87,WNW,298,12.0,19.0,93,0.00,,,0.08,,2013-02-08 10:32:00,
2013-02-08 05:42:00,33.0,31.0,29.87,WNW,298,12.0,19.0,93,0.00,,,0.08,,2013-02-08 10:42:00,
2013-02-08 05:52:00,33.0,31.0,29.89,NW,312,13.0,23.0,91,0.00,,,0.08,,2013-02-08 10:52:00,
2013-02-08 06:01:00,33.0,30.0,29.90,West,278,12.0,24.0,89,0.00,,,0.08,,2013-02-08 11:01:00,
2013-02-08 06:11:00,33.0,30.0,29.90,West,278,12.0,24.0,89,0.00,,,0.08,,2013-02-08 11:11:00,
2013-02-08 06:22:00,33.0,30.0,29.91,NW,321,11.0,26.0,88,0.00,,,0.08,,2013-02-08 11:22:00,
2013-02-08 06:32:00,32.0,29.0,29.91,WNW,292,10.0,23.0,88,0.00,,,0.08,,2013-02-08 11:32:00,
2013-02-08 06:42:00,32.0,29.0,29.91,WNW,292,10.0,23.0,88,0.00,,,0.08,,2013-02-08 11:42:00,
2013-02-08 06:52:00,32.0,29.0,29.92,WNW,294,14.0,21.0,88,0.00,,,0.08,,2013-02-08 11:52:00,
2013-02-08 07:02:00,32.0,29.0,29.93,NW,315,15.0,24.0,87,0.00,,,0.08,,2013-02-08 12:02:00,
2013-02-08 07:11:00,32.0,29.0,29.93,NW,315,15.0,24.0,87,0.00,,,0.08,,2013-02-08 12:11:00,
2013-02-08 07:22:00,31.0,28.0,29.95,WNW,299,12.0,22.0,87,0.00,,,0.08,,2013-02-08 12:22:00,
2013-02-08 07:33:00,31.0,28.0,29.96,WNW,296,11.0,20.0,87,0.00,,,0.08,,2013-02-08 12:33:00,
2013-02-08 07:42:00,31.0,28.0,29.96,WNW,296,11.0,20.0,87,0.00,,,0.08,,2013-02-08 12:42:00,
2013-02-08 07:52:00,31.0,27.0,29.97,NNW,334,11.0,22.0,86,0.00,,,0.08,,2013-02-08 12:52:00,
2013-02-08 08:02:00,31.0,27.0,29.98,WNW,296,10.0,20.0,86,0.00,,,0.08,,2013-02-08 13:02:00,
2013-02-08 08:12:00,31.0,27.0,29.98,WNW,296,10.0,20.0,86,0.00,,,0.08,,2013-02-08 13:12:00,
2013-02-08 08:22:00,30.0,26.0,29.99,WNW,299,11.0,17.0,86,0.00,,,0.08,,2013-02-08 13:22:00,
2013-02-08 08:32:00,30.0,26.0,30.01,NNW,336,11.0,19.0,85,0.00,,,0.08,,2013-02-08 13:32:00,
2013-02-08 08:42:00,30.0,26.0,30.01,NNW,336,11.0,19.0,85,0.00,,,0.08,,2013-02-08 13:42:00,
2013-02-08 08:52:00,30.0,26.0,30.01,NW,319,12.0,20.0,86,0.00,,,0.08,,2013-02-08 13:52:00,
2013-02-08 09:02:00,30.0,26.0,30.02,North,360,14.0,21.0,86,0.00,,,0.08,,2013-02-08 14:02:00,
2013-02-08 09:11:00,30.0,26.0,30.02,North,360,14.0,21.0,86,0.00,,,0.08,,2013-02-08 14:11:00,
2013-02-08 09:22:00,30.0,26.0,30.03,NNW,348,14.0,23.0,85,0.00,,,0.08,,2013-02-08 14:22:00,
2013-02-08 09:32:00,30.0,26.0,30.05,NW,313,11.0,22.0,86,0.00,,,0.08,,2013-02-08 14:32:00,
2013-02-08 09:42:00,30.0,26.0,30.05,NW,313,11.0,22.0,86,0.00,,,0.08,,2013-02-08 14:42:00,
2013-02-08 09:52:00,30.0,26.0,30.05,NNW,346,10.0,18.0,86,0.00,,,0.08,,2013-02-08 14:52:00,
2013-02-08 10:02:00,30.0,26.0,30.07,North,5,9.0,18.0,86,0.00,,,0.08,,2013-02-08 15:02:00,
2013-02-08 10:12:00,30.0,26.0,30.07,North,5,9.0,18.0,86,0.00,,,0.08,,2013-02-08 15:12:00,
2013-02-08 10:22:00,30.0,26.0,30.08,NW,305,9.0,20.0,86,0.00,,,0.08,,2013-02-08 15:22:00,
2013-02-08 10:32:00,31.0,27.0,30.08,NW,320,9.0,23.0,85,0.00,,,0.08,,2013-02-08 15:32:00,
2013-02-08 10:42:00,31.0,27.0,30.08,NW,320,9.0,23.0,85,0.00,,,0.08,,2013-02-08 15:42:00,
2013-02-08 10:52:00,31.0,27.0,30.09,NNW,336,12.0,19.0,84,0.00,,,0.08,,2013-02-08 15:52:00,
2013-02-08 11:01:00,31.0,27.0,30.10,North,351,11.0,17.0,85,0.00,,,0.08,,2013-02-08 16:01:00,
2013-02-08 11:11:00,31.0,27.0,30.10,North,351,11.0,17.0,85,0.00,,,0.08,,2013-02-08 16:11:00,
2013-02-08 11:22:00,31.0,27.0,30.11,North,5,12.0,19.0,85,0.00,,,0.08,,2013-02-08 16:22:00,
2013-02-08 11:32:00,31.0,27.0,30.11,NW,318,10.0,18.0,84,0.00,,,0.08,,2013-02-08 16:32:00,
2013-02-08 11:42:00,31.0,27.0,30.11,NW,318,10.0,18.0,84,0.00,,,0.08,,2013-02-08 16:42:00,
2013-02-08 11:52:00,31.0,27.0,30.12,NW,321,7.0,14.0,84,0.00,,,0.08,,2013-02-08 16:52:00,
2013-02-08 12:04:00,31.0,26.0,30.13,NNW,340,11.0,17.0,83,0.00,,,0.08,,2013-02-08 17:04:00,
2013-02-08 12:12:00,31.0,26.0,30.13,NNW,340,11.0,17.0,83,0.00,,,0.08,,2013-02-08 17:12:00,
2013-02-08 12:23:00,31.0,27.0,30.14,NW,306,10.0,17.0,85,0.00,,,0.08,,2013-02-08 17:23:00,
2013-02-08 12:33:00,31.0,27.0,30.15,WNW,299,12.0,18.0,84,0.00,,,0.08,,2013-02-08 17:33:00,
2013-02-08 12:42:00,31.0,27.0,30.15,WNW,299,12.0,18.0,84,0.00,,,0.08,,2013-02-08 17:42:00,
2013-02-08 12:53:00,31.0,26.0,30.15,NW,319,10.0,19.0,83,0.00,,,0.08,,2013-02-08 17:53:00,
2013-02-08 13:02:00,30.0,26.0,30.15,WNW,286,8.0,18.0,84,0.00,,,0.08,,2013-02-08 18:02:00,
2013-02-08 13:12:00,30.0,26.0,30.15,WNW,286,8.0,18.0,84,0.00,,,0.08,,2013-02-08 18:12:00,
2013-02-08 13:25:00,30.0,26.0,30.15,NW,325,10.0,15.0,84,0.00,,,0.08,,2013-02-08 18:25:00,
2013-02-08 13:35:00,30.0,25.0,30.15,WNW,285,9.0,16.0,82,0.00,,,0.08,,2013-02-08 18:35:00,
2013-02-08 13:43:00,30.0,25.0,30.15,WNW,285,9.0,16.0,82,0.00,,,0.08,,2013-02-08 18:43:00,
2013-02-08 13:53:00,30.0,25.0,30.15,North,350,8.0,19.0,82,0.00,,,0.08,,2013-02-08 18:53:00,
2013-02-08 14:02:00,30.0,25.0,30.16,NW,319,9.0,16.0,81,0.00,,,0.08,,2013-02-08 19:02:00,
2013-02-08 14:11:00,30.0,25.0,30.16,NW,319,9.0,16.0,81,0.00,,,0.08,,2013-02-08 19:11:00,
2013-02-08 14:22:00,30.0,25.0,30.16,NNW,332,10.0,17.0,81,0.00,,,0.08,,2013-02-08 19:22:00,
2013-02-08 14:32:00,31.0,26.0,30.17,NW,310,8.0,15.0,80,0.00,,,0.08,,2013-02-08 19:32:00,
2013-02-08 14:42:00,31.0,26.0,30.17,NW,310,8.0,15.0,80,0.00,,,0.08,,2013-02-08 19:42:00,
2013-02-08 14:52:00,31.0,25.0,30.17,NNW,331,11.0,18.0,79,0.00,,,0.08,,2013-02-08 19:52:00,
2013-02-08 15:02:00,31.0,26.0,30.17,WNW,294,8.0,16.0,81,0.00,,,0.08,,2013-02-08 20:02:00,
2013-02-08 15:12:00,31.0,26.0,30.17,WNW,294,8.0,16.0,81,0.00,,,0.08,,2013-02-08 20:12:00,
2013-02-08 15:22:00,31.0,25.0,30.17,NW,318,7.0,13.0,78,0.00,,,0.08,,2013-02-08 20:22:00,
2013-02-08 15:32:00,31.0,25.0,30.18,NW,317,9.0,17.0,78,0.00,,,0.08,,2013-02-08 20:32:00,
2013-02-08 15:42:00,31.0,25.0,30.18,NW,317,9.0,17.0,78,0.00,,,0.08,,2013-02-08 20:42:00,
2013-02-08 15:52:00,31.0,25.0,30.19,NNW,338,7.0,14.0,78,0.00,,,0.08,,2013-02-08 20:52:00,
2013-02-08 16:02:00,31.0,25.0,30.20,WNW,298,10.0,15.0,78,0.00,,,0.08,,2013-02-08 21:02:00,
2013-02-08 16:12:00,31.0,25.0,30.20,WNW,298,10.0,15.0,78,0.00,,,0.08,,2013-02-08 21:12:00,
2013-02-08 16:22:00,31.0,24.0,30.21,NNW,332,8.0,14.0,76,0.00,,,0.08,,2013-02-08 21:22:00,
2013-02-08 16:32:00,31.0,25.0,30.21,NW,309,9.0,14.0,77,0.00,,,0.08,,2013-02-08 21:32:00,
2013-02-08 16:42:00,31.0,25.0,30.21,NW,309,9.0,14.0,77,0.00,,,0.08,,2013-02-08 21:42:00,
2013-02-08 16:52:00,31.0,24.0,30.22,NNW,336,9.0,13.0,76,0.00,,,0.08,,2013-02-08 21:52:00,
2013-02-08 17:02:00,31.0,25.0,30.22,WNW,286,8.0,13.0,77,0.00,,,0.08,,2013-02-08 22:02:00,
2013-02-08 17:11:00,31.0,25.0,30.22,WNW,286,8.0,13.0,77,0.00,,,0.08,,2013-02-08 22:11:00,
2013-02-08 17:22:00,31.0,24.0,30.23,NNE,12,9.0,17.0,76,0.00,,,0.08,,2013-02-08 22:22:00,
2013-02-08 17:32:00,31.0,24.0,30.23,North,5,8.0,13.0,76,0.00,,,0.08,,2013-02-08 22:32:00,
2013-02-08 17:42:00,31.0,24.0,30.23,North,5,8.0,13.0,76,0.00,,,0.08,,2013-02-08 22:42:00,
2013-02-08 17:52:00,30.0,23.0,30.24,NNW,335,5.0,13.0,76,0.00,,,0.08,,2013-02-08 22:52:00,
2013-02-08 18:01:00,30.0,23.0,30.24,North,350,5.0,11.0,76,0.00,,,0.08,,2013-02-08 23:01:00,
2013-02-08 18:11:00,30.0,23.0,30.24,North,350,5.0,11.0,76,0.00,,,0.08,,2013-02-08 23:11:00,
2013-02-08 18:22:00,30.0,23.0,30.24,NNW,331,6.0,11.0,76,0.00,,,0.08,,2013-02-08 23:22:00,
2013-02-08 18:32:00,30.0,24.0,30.25,NNW,337,4.0,11.0,77,0.00,,,0.08,,2013-02-08 23:32:00,
2013-02-08 18:42:00,30.0,24.0,30.25,NNW,337,4.0,11.0,77,0.00,,,0.08,,2013-02-08 23:42:00,
2013-02-08 18:52:00,30.0,24.0,30.26,NNW,342,4.0,8.0,77,0.00,,,0.08,,2013-02-08 23:52:00,
2013-02-08 19:02:00,30.0,24.0,30.26,WNW,302,5.0,7.0,78,0.00,,,0.08,,2013-02-09 00:02:00,
2013-02-08 19:11:00,30.0,24.0,30.26,WNW,302,5.0,7.0,78,0.00,,,0.08,,2013-02-09 00:11:00,
2013-02-08 19:22:00,30.0,24.0,30.27,North,355,4.0,8.0,77,0.00,,,0.08,,2013-02-09 00:22:00,
2013-02-08 19:32:00,30.0,24.0,30.28,NNW,332,3.0,5.0,77,0.00,,,0.08,,2013-02-09 00:32:00,
2013-02-08 19:42:00,30.0,24.0,30.28,NNW,332,3.0,5.0,77,0.00,,,0.08,,2013-02-09 00:42:00,
2013-02-08 19:52:00,30.0,24.0,30.29,NNW,346,2.0,5.0,79,0.00,,,0.08,,2013-02-09 00:52:00,
2013-02-08 20:02:00,30.0,24.0,30.29,North,355,1.0,4.0,79,0.00,,,0.08,,2013-02-09 01:02:00,
2013-02-08 20:11:00,30.0,24.0,30.29,North,355,1.0,4.0,79,0.00,,,0.08,,2013-02-09 01:11:00,
2013-02-08 20:22:00,30.0,24.0,30.29,NNW,335,3.0,4.0,78,0.00,,,0.08,,2013-02-09 01:22:00,
2013-02-08 20:32:00,30.0,24.0,30.30,WNW,290,2.0,4.0,78,0.00,,,0.08,,2013-02-09 01:32:00,
2013-02-08 20:42:00,30.0,24.0,30.30,WNW,290,2.0,4.0,78,0.00,,,0.08,,2013-02-09 01:42:00,
2013-02-08 20:52:00,30.0,23.0,30.30,WNW,299,4.0,6.0,76,0.00,,,0.08,,2013-02-09 01:52:00,
2013-02-08 21:01:00,30.0,23.0,30.31,NNW,343,4.0,7.0,76,0.00,,,0.08,,2013-02-09 02:01:00,
2013-02-08 21:11:00,30.0,22.0,30.30,NW,315,5.0,8.0,73,0.00,,,0.08,,2013-02-09 02:11:00,
2013-02-08 21:22:00,30.0,22.0,30.30,NW,315,5.0,8.0,73,0.00,,,0.08,,2013-02-09 02:22:00,
2013-02-08 21:32:00,30.0,22.0,30.31,NW,320,3.0,9.0,71,0.00,,,0.08,,2013-02-09 02:32:00,
2013-02-08 21:42:00,30.0,22.0,30.31,NW,320,3.0,9.0,71,0.00,,,0.08,,2013-02-09 02:42:00,
2013-02-08 21:53:00,30.0,22.0,30.31,NW,326,3.0,8.0,72,0.00,,,0.08,,2013-02-09 02:53:00,
2013-02-08 22:02:00,29.0,21.0,30.32,NW,323,3.0,8.0,73,0.00,,,0.08,,2013-02-09 03:02:00,
2013-02-08 22:11:00,29.0,21.0,30.32,NW,323,3.0,8.0,73,0.00,,,0.08,,2013-02-09 03:11:00,
2013-02-08 22:22:00,29.0,22.0,30.32,NNW,343,2.0,5.0,74,0.00,,,0.02,,2013-02-09 03:22:00,
2013-02-08 22:32:00,29.0,22.0,30.33,WNW,298,1.0,6.0,75,0.00,,,0.02,,2013-02-09 03:32:00,
2013-02-08 22:42:00,29.0,22.0,30.33,WNW,298,1.0,6.0,75,0.00,,,0.02,,2013-02-09 03:42:00,
2013-02-08 22:53:00,28.0,21.0,30.33,WNW,302,0.0,3.0,76,0.00,,,0.02,,2013-02-09 03:53:00,
2013-02-08 23:03:00,28.0,22.0,30.33,WNW,302,0.0,1.0,77,0.00,,,0.02,,2013-02-09 04:03:00,
2013-02-08 23:12:00,27.0,21.0,30.33,WNW,302,0.0,0.0,79,0.00,,,0.02,,2013-02-09 04:12:00,
2013-02-08 23:23:00,27.0,21.0,30.33,WNW,302,0.0,0.0,79,0.00,,,0.02,,2013-02-09 04:23:00,
2013-02-08 23:32:00,27.0,22.0,30.33,WNW,302,0.0,0.0,80,0.00,,,0.02,,2013-02-09 04:32:00,
2013-02-08 23:42:00,27.0,22.0,30.33,WNW,302,0.0,0.0,80,0.00,,,0.02,,2013-02-09 04:42:00,
2013-02-08 23:52:00,26.0,21.0,30.33,WNW,302,0.0,0.0,82,0.00,,,0.02,,2013-02-09 04:52:00,